Theta_e
307 307 307 309 310 314 316 315 313 312 313 311 312 312 311 312 314 316 315 324 332 335 338 337 336 341 343 341 341 341 342 343 342 342 342 342 341 343 341 338 339 334 337 341 343 343 341 341 341 338 337 337 336 336 335 332 329 327 328 327 327 328 331 332 327 323 325 326 327 327 329 331 332 331 328 328 330 331 331 330 329 329 326 323 322 320 320 318 319 318 319 322 322 319 316 314 313
307 307 309 310 311 315 316 315 313 313 313 310 312 313 312 315 317 319 317 324 335 339 341 341 341 342 342 342 342 341 344 343 340 342 345 343 343 342 338 338 338 334 334 340 343 342 342 342 340 338 338 337 336 336 334 330 328 328 327 326 327 328 330 332 329 325 324 326 327 327 328 329 330 329 328 329 330 331 332 332 332 332 330 327 323 320 319 317 316 316 317 321 323 322 317 314 312
307 308 311 313 313 315 316 315 313 312 310 309 313 316 316 322 326 326 323 326 338 340 338 340 341 340 341 341 342 342 345 343 341 343 345 344 342 339 337 338 337 334 331 335 341 342 343 341 339 338 338 337 337 336 333 329 329 328 327 326 328 329 329 331 330 326 324 327 329 329 330 330 330 330 330 329 329 331 333 334 334 333 332 330 325 321 318 316 314 314 316 321 327 325 318 314 311
307 310 311 315 315 316 318 315 314 312 309 310 317 322 323 328 331 330 328 331 338 336 334 339 339 339 340 341 342 343 345 344 344 345 344 344 341 337 336 337 337 333 330 331 336 339 340 340 339 338 338 338 336 336 332 329 330 329 327 327 328 328 328 330 330 327 325 327 329 330 331 330 330 331 331 329 329 333 334 334 334 333 332 331 328 322 318 315 312 313 314 321 328 325 318 314 312
308 311 312 315 316 317 317 315 314 312 309 313 320 326 326 328 331 331 332 333 333 331 333 337 339 339 341 343 341 343 344 345 345 344 344 342 338 337 337 337 336 333 330 328 329 333 337 338 339 339 338 338 337 336 332 329 331 330 328 328 328 329 329 329 330 329 327 326 327 329 329 329 329 329 329 328 331 334 335 334 334 332 331 330 329 324 318 313 312 313 313 319 325 323 319 315 315
312 314 314 315 316 316 316 314 314 313 312 315 322 324 322 325 330 331 331 331 330 331 334 335 338 341 342 343 342 344 344 345 346 345 344 341 338 337 337 337 336 333 330 327 325 328 336 338 339 339 338 338 337 336 332 330 331 331 329 329 329 329 330 329 329 329 328 327 326 327 326 326 327 327 329 330 333 335 335 335 334 332 329 329 329 325 319 314 312 312 312 316 320 320 320 318 318
313 315 315 315 314 315 316 315 314 315 313 313 318 320 317 321 326 328 329 330 330 332 336 336 338 340 342 341 342 344 342 344 345 345 345 342 340 339 336 337 336 334 331 328 324 325 333 337 337 339 339 338 338 337 333 330 331 331 330 329 330 330 330 330 329 329 329 329 328 328 327 326 326 327 329 331 334 335 335 335 334 331 329 327 327 327 322 316 313 312 311 313 315 316 319 318 318
314 315 315 315 315 314 315 315 314 315 314 312 315 316 317 319 320 324 327 330 330 332 336 336 335 338 340 339 341 343 343 344 345 345 345 342 343 343 337 336 336 335 332 328 325 324 329 334 335 338 339 339 338 338 335 331 331 332 331 330 330 330 330 330 330 329 329 329 328 329 329 329 330 330 330 332 334 334 334 335 333 331 329 328 327 328 326 320 314 313 312 312 314 314 316 318 320
314 315 315 314 314 314 313 314 313 314 314 314 315 316 317 318 318 319 322 326 327 331 337 334 333 337 339 340 342 344 344 345 345 345 345 343 343 343 338 335 336 336 333 330 326 324 327 331 333 336 338 339 338 338 338 334 331 331 331 331 331 330 330 330 330 330 330 329 329 328 328 328 330 332 332 332 332 330 331 333 332 330 328 327 326 327 326 322 318 315 316 315 316 315 315 319 323
315 315 314 314 313 313 312 312 313 313 313 315 315 316 316 316 317 318 319 324 327 332 337 333 335 339 340 341 342 344 345 345 344 344 344 342 341 341 338 335 336 337 336 332 328 325 326 330 332 334 337 338 337 338 338 337 333 331 331 331 331 331 331 331 330 330 330 330 330 330 328 327 328 329 330 329 328 327 328 329 330 330 327 326 326 326 326 324 321 319 319 318 319 319 319 322 324
315 314 313 313 313 311 311 312 313 313 314 314 314 315 315 315 315 317 318 321 326 333 336 334 337 340 340 341 342 344 345 345 345 344 344 342 340 339 336 334 335 336 337 334 330 326 326 331 333 334 336 337 337 337 337 338 336 334 332 331 331 331 331 331 330 330 330 331 331 331 330 329 327 327 327 327 327 327 327 326 327 327 324 323 324 323 324 324 323 321 320 320 321 321 322 324 325
315 313 313 314 313 312 312 312 313 315 315 314 315 316 314 315 314 315 317 318 325 332 336 334 336 338 339 340 342 344 344 346 345 344 344 344 343 340 336 334 333 335 336 336 332 327 327 333 335 335 335 335 337 337 337 337 338 337 335 333 332 332 331 330 331 330 330 330 331 332 332 330 328 327 328 327 327 328 328 327 324 322 320 320 321 320 322 323 323 322 322 322 321 321 322 322 324
314 313 313 313 312 312 313 312 314 316 316 315 316 315 313 314 315 315 316 317 323 330 333 334 333 336 338 341 342 344 344 345 345 345 345 345 345 343 340 335 333 333 335 335 333 328 328 333 335 336 336 336 337 337 337 337 338 338 337 336 334 333 332 330 330 330 330 330 331 332 332 332 329 328 328 328 329 329 329 328 326 324 321 320 321 321 321 323 323 323 322 323 324 323 322 322 323
313 312 314 313 311 312 313 312 314 314 315 316 316 313 312 314 315 316 315 315 321 328 332 333 333 335 339 340 342 343 344 345 345 345 344 344 344 345 343 339 334 333 335 335 334 330 327 331 334 336 336 335 336 336 336 337 337 338 338 338 336 335 334 332 331 331 331 330 330 331 332 332 330 329 328 328 330 330 329 329 327 325 323 321 323 322 319 320 321 323 323 323 324 325 325 324 325
312 312 314 313 311 312 312 312 313 313 314 315 314 313 312 316 318 317 315 314 321 329 333 334 333 332 337 339 341 343 343 344 345 344 344 344 343 343 344 342 338 334 334 336 336 332 328 330 332 333 335 335 335 336 336 336 336 336 338 338 337 336 335 334 333 333 332 331 330 331 331 331 330 329 329 330 331 331 329 328 327 324 323 321 323 322 317 316 317 320 323 324 324 325 325 325 326
311 311 313 313 311 311 312 312 313 313 315 314 313 312 313 318 321 319 315 315 323 331 334 335 334 330 333 336 337 342 344 344 344 344 344 344 344 343 342 342 341 337 335 335 336 334 330 328 329 330 333 334 334 335 335 335 335 335 336 337 337 336 335 334 334 334 334 333 332 331 331 331 330 329 330 331 331 331 329 328 326 323 323 321 322 322 318 316 315 317 323 325 325 325 324 324 324
311 312 312 312 311 311 311 312 313 313 314 314 312 312 312 319 323 323 319 319 327 333 333 334 334 328 330 334 334 341 344 343 343 344 344 344 343 343 342 342 342 340 337 336 336 335 331 329 328 328 330 332 333 333 333 333 333 334 335 335 335 335 335 335 335 336 335 334 332 332 332 331 330 329 330 331 330 330 329 327 325 322 322 322 322 322 319 317 315 315 321 324 326 328 326 322 321
311 312 312 312 311 311 312 313 312 312 313 313 313 311 312 320 325 326 325 326 329 331 331 332 332 326 328 333 335 340 342 342 342 342 342 342 343 342 341 341 342 342 340 338 337 336 333 330 329 328 330 330 331 332 332 332 332 334 334 333 334 334 334 334 335 335 334 333 333 333 333 331 330 329 329 330 330 330 329 326 325 324 324 324 323 322 319 318 316 315 318 322 325 328 329 325 319
311 311 311 311 311 312 312 312 312 312 313 313 314 311 313 322 325 326 327 327 328 328 329 330 332 329 329 333 337 341 341 340 340 338 338 339 340 340 340 341 341 342 342 340 339 336 335 332 329 329 330 330 330 331 332 332 332 333 333 332 332 332 332 332 332 332 332 332 332 332 332 330 330 329 329 329 331 331 329 327 326 326 326 326 325 322 320 319 317 315 316 320 322 325 328 328 321
310 310 312 312 312 311 311 311 312 312 312 313 312 311 315 321 322 326 327 326 327 328 329 330 335 333 332 335 339 340 339 338 338 336 335 335 336 336 336 338 339 341 341 341 340 337 335 333 330 330 332 332 331 331 332 333 333 333 334 333 332 332 332 332 332 332 331 331 331 331 329 330 330 329 329 329 330 330 329 328 327 327 327 327 326 324 322 319 317 317 315 316 320 322 325 329 324
310 310 312 312 310 311 312 312 312 312 312 312 311 312 316 319 321 325 327 326 327 327 329 330 333 332 333 338 338 338 337 336 336 335 334 333 333 333 333 334 336 338 339 341 341 339 336 335 332 331 334 335 334 333 331 332 333 333 333 333 333 333 332 332 332 332 332 331 330 329 328 329 330 329 328 327 329 330 329 329 328 327 327 327 327 327 325 321 319 320 319 316 318 321 322 326 326
310 310 311 311 309 310 312 312 312 312 311 310 310 312 316 319 322 326 327 328 328 327 328 328 329 329 332 337 337 336 334 333 334 333 332 331 331 331 331 331 333 336 339 341 341 339 337 335 334 333 335 336 336 336 334 333 334 333 332 333 333 333 333 332 332 332 332 331 330 329 329 329 330 329 328 327 328 329 329 328 326 326 327 327 327 328 325 323 321 320 322 318 316 319 320 323 327
310 310 309 310 310 310 312 311 311 311 311 311 311 312 314 319 323 325 327 327 324 325 326 326 327 332 334 335 335 334 332 331 331 329 328 327 328 328 329 329 331 335 338 339 340 339 337 336 336 335 336 337 338 338 337 336 335 335 334 333 333 332 333 333 333 332 332 332 330 329 329 329 330 330 328 326 327 329 329 328 326 325 326 327 326 328 326 324 322 320 321 320 314 314 318 322 327
310 310 309 310 310 309 311 311 311 311 310 311 311 311 312 317 322 324 326 324 321 322 324 325 326 332 337 336 335 333 331 330 328 326 325 324 325 327 327 327 328 329 332 333 335 336 336 336 338 337 337 337 337 338 338 337 336 336 336 335 335 333 333 334 334 333 333 332 331 329 327 327 329 329 326 324 325 326 327 328 328 327 326 325 326 328 328 325 322 320 321 319 314 312 316 322 327
309 309 310 310 310 310 312 311 311 310 310 311 310 310 311 314 319 322 325 323 321 320 322 325 326 333 337 336 335 333 331 330 327 326 324 324 324 325 324 324 324 324 324 325 326 328 329 332 334 334 334 335 336 336 336 336 336 336 336 336 336 336 334 334 335 335 333 333 332 330 328 327 326 326 325 323 323 323 325 327 329 329 326 325 326 327 328 327 323 320 322 319 314 311 314 323 327
309 310 310 310 311 311 311 310 310 310 310 311 310 311 313 314 318 322 322 321 321 320 322 324 326 333 337 337 335 334 332 330 327 325 324 323 323 323 322 322 322 320 320 320 320 320 321 323 325 325 327 328 328 328 329 330 332 333 333 333 333 334 334 334 335 335 334 333 332 331 330 328 326 324 324 323 323 324 326 328 329 329 327 326 327 327 327 327 324 321 323 319 313 309 312 322 326
310 310 310 310 311 310 309 309 310 310 310 311 311 314 314 313 317 320 319 320 321 321 323 325 326 332 337 337 335 333 332 329 326 324 324 323 322 321 321 322 321 320 319 318 318 318 317 318 319 319 319 320 319 318 319 321 324 326 327 329 329 330 330 332 333 334 334 333 332 332 330 329 327 326 326 325 325 327 328 329 329 329 329 329 329 329 328 327 325 322 323 319 311 309 313 320 323
310 310 310 310 309 309 309 309 309 310 310 310 312 314 313 313 314 316 318 320 321 321 323 326 328 332 336 336 335 333 331 328 326 325 323 321 320 320 321 321 321 320 319 319 319 318 317 316 317 317 317 316 315 315 315 315 316 317 319 323 324 324 324 326 328 330 332 333 333 333 332 330 329 328 329 329 328 329 330 330 331 331 330 330 330 331 329 328 326 324 324 318 311 312 316 320 323
309 309 310 311 311 311 310 309 309 310 311 310 312 314 313 315 313 314 318 321 321 321 323 328 332 333 336 336 334 333 331 328 327 326 324 321 319 320 321 321 320 320 320 320 319 318 316 316 316 316 315 314 314 314 314 314 314 315 316 318 320 321 322 323 324 327 330 332 332 333 333 332 331 330 330 331 330 331 331 331 332 332 331 331 330 331 330 330 328 324 324 319 314 317 319 322 324
310 308 309 311 312 312 310 309 310 311 311 310 312 313 313 316 312 313 320 321 321 322 323 328 333 334 335 336 334 332 331 329 327 327 326 322 320 320 321 321 321 320 320 319 319 317 316 315 313 314 313 314 314 315 315 315 315 317 317 319 319 320 322 323 324 325 328 330 331 332 333 332 332 331 331 331 331 330 331 332 332 332 332 331 331 331 331 331 330 326 325 321 317 320 323 324 326
310 309 309 310 311 312 311 310 311 313 311 311 313 312 313 315 312 315 321 321 321 323 322 327 331 332 334 335 334 332 330 329 329 329 328 323 321 321 321 321 320 320 319 319 318 317 315 313 312 312 312 313 314 314 315 316 318 319 320 320 320 320 320 320 322 322 323 326 329 330 331 331 331 331 332 331 331 331 331 331 332 332 331 331 331 331 330 331 331 329 327 322 318 322 326 326 327
310 310 311 311 311 312 312 311 311 313 311 311 313 312 313 313 311 316 321 321 322 323 322 324 328 330 333 335 333 331 330 330 330 330 329 324 321 321 321 320 320 319 319 318 318 317 314 311 311 311 311 311 312 312 314 316 319 321 321 321 321 321 321 320 320 321 321 324 327 328 328 328 328 328 329 329 328 328 329 331 331 331 331 330 331 331 330 331 332 331 328 323 320 322 326 327 327
311 313 314 313 313 313 313 312 311 312 312 312 312 313 315 312 310 315 321 320 321 323 322 322 325 328 332 333 332 331 331 331 332 332 329 323 322 321 321 320 319 319 318 318 318 316 313 310 310 310 310 310 310 310 311 315 318 320 320 320 320 320 319 319 320 321 321 323 324 324 325 325 325 325 325 324 324 326 327 327 328 329 330 330 330 331 331 331 331 331 330 326 322 322 324 326 327
312 314 315 313 313 313 314 314 313 312 313 313 312 312 313 312 310 315 320 321 320 322 323 322 322 325 329 332 332 332 332 332 331 331 327 323 321 321 321 320 319 319 318 318 318 316 312 311 310 310 310 309 308 308 310 313 316 318 318 316 316 317 318 319 320 320 321 321 322 322 322 322 323 323 322 322 322 324 324 322 323 326 329 330 330 330 330 331 331 331 330 329 326 323 323 324 325
313 314 315 313 312 313 314 315 313 313 313 313 312 313 313 312 311 314 319 320 320 322 322 322 322 322 325 327 329 329 329 330 330 328 324 322 321 321 321 320 319 319 319 319 318 316 314 312 310 310 309 308 308 308 309 312 313 314 313 312 313 316 317 317 317 317 317 317 317 317 317 317 317 317 316 316 316 318 318 317 320 323 327 329 330 329 329 330 330 330 330 330 328 326 324 324 324
314 316 316 315 314 313 314 314 312 312 313 312 314 315 314 314 312 312 317 318 319 322 320 321 321 321 322 323 324 325 325 326 325 324 323 322 321 321 320 319 319 319 319 319 318 316 314 311 310 309 309 308 308 308 309 310 310 310 310 310 311 312 313 312 311 311 311 311 311 311 312 312 312 310 309 308 309 309 309 311 314 317 321 324 326 328 329 330 330 330 330 330 330 328 326 325 325
316 317 316 314 315 315 315 314 313 313 313 313 315 316 315 316 314 313 315 316 318 321 320 321 321 320 321 321 322 323 322 323 322 322 321 320 320 320 320 320 320 319 318 319 318 317 314 311 310 309 309 308 308 308 308 307 307 307 308 309 308 308 308 307 307 307 307 308 307 307 307 307 307 306 306 306 307 307 306 307 311 314 316 320 325 327 329 330 330 330 330 330 330 330 329 327 326
316 316 315 314 314 315 315 314 314 313 314 314 315 316 316 316 316 314 313 315 319 321 321 321 321 320 321 321 322 322 322 321 321 321 320 319 320 321 321 321 321 319 319 318 318 317 315 311 310 309 308 308 308 307 307 306 306 306 307 307 306 306 306 306 306 306 306 306 306 305 305 304 304 304 304 305 306 307 306 306 311 315 317 320 325 327 328 329 329 329 329 330 330 330 330 329 328
316 314 315 315 314 314 315 316 316 314 314 316 314 315 317 317 317 316 314 315 318 318 319 321 321 320 320 321 321 321 322 321 320 320 319 319 320 322 322 321 321 319 318 318 318 317 315 312 310 308 308 308 308 307 306 306 306 306 306 306 306 306 307 307 306 306 306 305 305 304 304 303 303 303 303 304 306 308 309 309 310 314 318 321 323 325 325 327 327 327 328 329 330 329 330 330 330
315 314 314 316 315 315 315 317 319 315 314 316 314 315 318 319 318 317 315 313 313 313 314 317 319 320 320 320 321 321 321 321 321 320 319 319 320 321 321 321 320 319 319 318 318 318 315 312 310 308 308 308 307 307 307 307 307 306 306 307 307 307 307 307 306 306 306 305 305 305 304 303 303 303 303 305 308 310 312 312 311 313 316 318 320 320 321 322 324 325 326 327 328 328 328 329 329
317 318 315 316 317 317 315 317 319 317 314 315 315 315 316 317 317 316 314 313 313 312 312 313 315 318 319 319 320 321 321 321 321 321 320 320 320 320 320 320 320 318 319 319 318 318 315 312 311 309 307 308 308 307 307 307 307 307 307 307 307 307 307 307 307 307 307 306 306 305 305 304 304 303 303 306 309 311 313 313 313 313 313 315 316 316 316 317 319 322 323 325 326 326 327 327 328
317 320 319 319 320 319 318 318 318 316 315 314 314 313 314 317 316 315 315 314 315 314 313 313 313 314 316 318 319 320 320 321 321 321 320 320 320 320 320 319 319 319 319 319 318 318 315 312 311 309 307 307 307 307 307 308 308 307 308 308 308 307 307 308 307 307 307 307 306 306 306 305 305 304 304 306 308 309 311 312 312 312 312 314 315 315 314 315 316 318 319 321 323 324 325 326 327
315 319 320 319 319 320 321 318 316 314 314 314 313 314 314 316 316 316 315 316 316 315 316 316 312 311 313 315 317 318 317 318 319 319 320 320 320 320 320 319 319 319 319 319 318 318 316 313 312 309 307 307 308 308 308 308 308 307 308 308 308 308 308 308 308 308 307 307 307 306 306 306 305 305 304 305 305 306 307 308 308 309 309 310 311 312 313 312 311 312 313 314 318 320 322 324 325
316 318 317 316 318 321 321 318 316 314 314 315 314 314 314 315 316 316 315 316 317 316 317 315 313 312 312 313 314 314 315 315 316 317 318 319 320 320 319 319 319 319 319 320 319 318 316 314 313 311 308 307 308 308 308 309 308 308 308 308 308 308 308 308 308 308 308 307 307 307 306 306 306 305 305 304 304 304 304 305 305 305 305 305 306 307 307 307 306 306 306 307 309 311 314 317 319
316 315 314 315 317 320 319 316 315 314 314 314 314 314 314 315 316 316 315 314 316 316 315 314 313 312 312 313 313 313 313 313 314 315 316 318 319 319 319 319 319 319 319 320 319 319 317 315 314 312 308 308 308 308 308 309 308 308 308 308 308 308 308 308 308 308 308 308 307 307 306 306 306 305 305 305 305 304 304 304 304 304 304 303 304 304 304 304 304 304 304 304 304 305 306 307 309
314 312 311 312 313 316 316 314 313 314 313 314 315 315 314 314 315 315 314 314 314 314 314 313 313 312 312 312 313 312 312 312 313 313 314 316 319 320 320 319 319 320 319 320 319 319 318 316 315 313 309 308 308 308 309 308 308 308 308 308 308 309 309 309 309 308 308 308 308 307 307 306 306 305 305 305 305 305 305 305 304 304 304 304 304 304 304 304 304 304 304 304 304 304 304 303 304
311 312 312 311 312 312 313 312 312 313 313 314 315 314 314 313 314 314 313 313 312 312 314 314 314 313 312 312 312 312 312 312 312 312 312 313 316 319 320 320 320 320 319 320 320 319 318 317 316 315 311 308 308 309 308 309 309 308 308 308 309 309 309 309 309 309 309 309 308 308 307 307 306 306 305 305 305 305 305 305 304 305 304 304 304 304 304 305 305 305 305 305 305 304 304 304 303
311 314 313 312 312 312 312 312 312 313 313 313 311 311 313 314 314 313 312 311 310 311 313 313 313 313 311 311 312 313 312 312 312 313 312 311 313 316 319 320 320 320 320 320 320 319 319 318 317 317 314 309 308 309 309 309 309 308 308 308 308 309 309 309 309 309 309 309 309 308 308 307 307 306 306 306 305 305 305 305 305 305 305 304 304 304 305 305 305 305 305 305 305 305 305 304 304
311 313 313 313 312 312 312 312 312 312 313 312 309 310 312 313 314 313 311 311 311 311 312 312 312 311 310 310 312 314 312 312 313 312 312 311 311 314 317 319 319 320 320 320 320 320 319 319 318 318 316 312 309 309 309 309 309 309 308 308 308 309 309 309 309 309 310 310 309 309 308 308 307 307 307 306 306 306 306 305 305 305 305 305 305 305 305 305 305 305 305 305 305 305 305 304 304
311 313 313 313 312 311 311 311 310 311 313 310 309 311 312 313 313 311 310 311 310 310 311 310 309 308 308 308 311 315 313 312 313 312 312 312 312 314 316 318 319 319 320 320 320 320 319 319 318 318 318 315 311 309 309 309 309 309 309 308 308 309 309 309 310 310 310 310 310 310 309 309 308 308 307 307 307 306 306 306 306 305 306 305 305 305 305 305 305 305 305 305 305 305 304 304 304
310 310 311 312 313 312 312 311 310 312 312 310 309 312 313 314 312 310 311 311 309 310 308 307 307 306 307 307 310 315 316 314 313 313 313 314 314 315 317 318 319 319 319 320 320 319 319 319 319 319 318 317 314 310 309 309 310 309 309 309 308 309 309 310 310 310 310 311 310 310 310 309 309 308 308 308 307 307 307 306 306 306 306 306 305 305 305 304 304 304 305 305 305 305 304 304 304
308 307 310 312 312 313 311 309 311 311 311 311 311 311 312 312 310 309 311 310 309 309 308 307 307 306 307 307 309 313 316 316 315 314 314 314 315 316 317 318 318 318 319 319 319 319 319 319 319 319 318 318 317 313 311 310 309 309 309 310 309 309 310 310 310 311 311 311 311 311 311 311 310 309 309 309 308 308 307 307 307 306 306 306 306 306 305 305 304 304 304 304 304 304 304 304 303
309 308 310 310 309 313 313 308 308 309 310 311 310 311 312 311 311 311 310 309 308 308 308 307 308 307 307 308 308 310 313 316 317 316 315 315 315 316 317 317 318 318 319 319 319 319 319 319 319 319 319 318 318 316 312 310 309 309 309 310 310 310 310 310 311 311 311 311 311 311 311 311 311 311 310 309 309 309 308 307 307 307 307 307 306 306 306 305 304 304 304 304 304 304 304 303 303
310 310 311 309 308 312 313 310 309 309 311 311 309 311 312 311 313 312 309 309 309 308 307 308 308 308 308 308 308 309 310 313 316 317 317 316 316 316 317 317 317 318 318 319 319 319 319 319 319 319 319 319 318 317 314 312 310 309 309 309 309 310 310 310 311 311 312 312 312 312 312 312 312 312 311 311 310 309 308 308 308 307 307 306 306 306 306 306 305 304 304 304 304 304 304 303 303
309 309 309 309 311 313 312 311 311 310 311 310 309 309 310 311 313 312 310 310 309 307 307 307 308 308 308 308 308 309 309 310 312 315 317 317 318 318 317 318 318 318 318 319 319 319 319 320 320 320 319 319 318 317 316 313 311 310 310 310 309 309 309 310 311 311 312 312 312 312 312 312 312 312 312 312 311 310 309 309 308 308 307 307 306 306 306 306 305 304 303 303 304 304 303 303 303
308 308 308 308 311 312 312 311 312 312 311 310 310 309 310 311 312 312 311 310 309 308 307 308 308 307 307 307 308 309 309 309 310 312 314 316 318 318 318 318 318 318 319 319 319 319 320 320 320 320 319 319 319 318 317 316 313 312 310 310 310 310 309 310 310 311 311 311 312 313 313 313 313 313 313 313 313 312 311 310 309 308 308 307 307 306 306 306 306 304 303 303 303 303 303 303 303
310 310 310 309 308 308 310 310 310 310 310 309 309 310 312 311 310 312 312 310 309 309 308 308 308 307 307 307 307 308 308 309 309 310 311 313 315 317 318 319 319 319 319 319 320 319 320 320 320 320 320 320 319 319 318 318 317 315 313 312 311 311 310 310 310 311 312 312 312 313 314 314 314 313 313 313 313 313 313 312 310 309 308 308 308 307 307 306 306 304 303 303 303 304 303 303 303
309 311 310 310 310 309 310 310 309 309 309 308 308 310 312 311 309 311 311 310 309 309 308 308 307 307 306 307 307 308 308 308 309 310 310 310 311 313 315 316 317 318 319 319 319 319 320 320 320 320 320 320 320 320 320 319 319 318 316 315 314 313 312 311 311 312 314 315 315 314 315 316 316 315 314 314 314 314 314 313 312 311 309 309 308 308 307 307 306 305 303 303 303 303 303 303 303
Wind_Speed
4 6 7 8 11 11 6 2 1 1 0 1 1 1 1 3 3 5 3 1 2 1 2 3 12 16 8 5 9 7 4 7 6 3 1 1 11 21 25 23 21 22 21 21 20 20 20 18 18 17 16 16 16 16 16 16 15 13 12 11 11 11 12 14 15 15 16 16 16 15 15 16 16 16 16 16 15 14 13 13 12 11 11 10 9 8 8 7 7 8 9 10 10 10 10 9 9
5 7 8 10 10 7 3 1 1 1 1 2 1 1 1 1 3 5 3 2 1 5 8 11 16 14 8 11 11 7 5 4 4 2 4 6 17 25 25 22 21 22 21 21 20 20 20 19 18 17 16 16 16 16 17 16 15 14 12 12 12 12 12 14 14 15 16 16 16 16 15 15 16 16 16 15 14 13 12 11 11 11 10 9 9 8 7 6 7 8 10 11 11 11 11 10 10
6 7 9 10 7 4 3 1 1 1 1 2 1 1 1 3 5 5 5 3 4 10 12 13 14 11 10 12 7 3 3 4 5 5 8 12 20 26 24 22 21 20 21 21 19 19 19 18 17 17 16 16 16 17 17 17 16 15 13 14 14 13 13 14 14 15 15 15 16 16 16 15 16 15 14 13 12 11 10 10 11 11 10 9 9 7 6 6 6 7 10 11 11 12 12 12 11
7 8 10 9 5 3 3 0 0 2 2 2 0 1 2 4 5 6 3 3 5 5 5 7 7 6 5 7 5 3 4 5 6 8 13 16 22 27 25 22 21 19 19 20 19 18 17 18 18 17 16 16 16 17 18 17 16 15 15 15 15 14 14 14 15 15 15 15 15 15 15 14 14 13 11 11 10 10 9 9 9 9 9 8 8 7 6 6 6 6 9 11 12 13 13 13 13
8 9 9 7 4 2 2 1 1 2 2 1 0 1 2 3 3 4 3 3 1 2 1 3 3 4 5 6 4 3 5 7 8 10 16 20 25 27 24 23 21 19 19 18 19 19 18 18 18 17 17 16 16 17 18 18 17 16 15 16 15 14 13 13 14 14 14 14 14 14 14 13 12 12 11 11 10 9 8 7 7 7 7 7 7 7 7 6 6 6 7 10 13 13 14 14 14
9 9 7 6 3 2 2 1 1 2 1 1 1 1 2 2 2 3 3 1 2 4 0 1 2 6 7 6 4 5 6 7 10 13 17 23 26 25 25 23 21 19 18 18 18 19 19 18 18 18 18 16 16 17 18 18 17 16 16 16 15 14 13 13 13 13 13 13 14 13 12 12 11 11 11 11 9 8 8 7 6 6 6 6 6 6 7 5 6 7 7 8 13 15 14 15 16
10 8 6 5 3 1 2 1 2 2 1 2 2 0 2 2 1 2 2 2 1 4 3 4 4 7 6 5 5 5 5 8 12 14 18 25 26 24 25 23 20 19 18 17 17 18 18 17 17 18 19 17 16 16 17 18 17 16 16 16 15 14 14 13 12 12 12 12 12 12 12 11 11 11 11 10 8 7 8 8 7 7 6 6 5 5 6 5 5 6 6 6 10 14 15 15 17
10 6 3 3 1 1 1 1 1 1 1 2 4 5 6 6 4 4 3 1 1 2 4 6 4 4 4 3 4 4 6 12 15 15 19 25 26 24 25 23 20 19 18 17 16 17 18 17 17 17 18 18 16 16 17 18 17 17 17 16 15 14 14 13 13 12 11 11 10 10 10 10 11 11 11 10 8 8 8 9 8 7 7 6 5 6 5 5 5 6 6 6 8 13 14 16 16
8 4 2 2 1 1 1 0 1 1 3 4 6 8 8 10 8 5 5 2 1 2 3 3 4 3 4 5 6 6 8 12 16 18 19 24 25 24 25 22 20 19 18 17 16 16 17 17 17 16 17 17 17 16 17 18 18 17 17 16 15 14 14 13 12 12 11 10 9 8 8 8 9 10 10 10 8 8 8 9 8 7 6 6 6 6 5 5 6 6 7 7 8 11 14 15 16
5 2 3 1 1 2 2 1 1 1 4 5 6 12 11 9 8 7 7 4 1 4 6 1 4 5 7 6 7 8 9 12 17 18 18 22 23 24 24 22 19 18 18 16 15 15 16 17 17 16 16 17 17 17 17 17 18 18 17 16 15 14 13 13 12 12 11 10 9 8 7 7 8 8 9 9 8 8 8 8 8 8 6 6 6 6 6 5 5 6 8 9 9 10 12 14 15
2 1 2 1 2 3 2 1 1 1 4 5 7 12 11 8 7 7 7 4 2 4 8 5 4 9 7 5 6 8 11 13 17 18 20 22 22 23 23 22 19 17 17 16 15 15 15 16 16 15 15 15 16 16 17 17 17 17 17 16 15 14 13 12 11 11 11 10 9 7 7 7 7 7 7 7 7 8 8 8 8 8 7 6 6 5 6 6 6 6 7 9 10 10 11 12 12
2 1 1 2 2 1 1 0 1 3 4 4 5 3 1 4 5 5 8 7 6 5 8 7 6 10 5 3 5 9 12 13 15 19 22 22 22 23 23 22 20 18 17 16 15 15 14 14 15 15 14 15 15 16 16 17 17 17 17 17 16 15 13 12 11 11 11 10 9 8 7 7 8 8 7 7 8 8 8 8 8 8 7 6 6 5 5 6 6 7 7 8 10 11 11 11 11
2 1 1 2 0 1 2 0 1 3 3 2 3 2 4 2 6 8 8 8 8 6 8 10 11 11 4 3 7 10 13 13 15 19 22 22 22 22 23 22 20 18 17 16 15 15 14 14 14 14 14 14 15 15 15 15 15 15 16 16 16 15 14 12 11 11 10 10 9 8 7 7 8 8 8 8 9 9 8 8 8 7 6 6 6 5 6 6 7 8 8 9 10 10 10 10 10
3 3 1 1 1 1 2 1 1 2 2 1 2 1 4 3 7 10 7 8 9 8 9 12 15 11 4 4 7 11 14 14 15 18 21 20 21 21 22 22 20 19 17 16 15 14 15 13 14 14 14 14 14 14 13 13 13 13 14 15 15 14 14 13 12 11 10 9 9 8 7 8 8 8 8 9 9 9 8 8 8 7 5 5 5 6 6 6 8 9 10 11 12 12 11 10 10
4 4 1 2 1 1 2 1 1 2 2 0 1 7 10 4 6 9 9 10 8 9 10 13 16 8 6 9 8 15 17 16 17 17 20 19 19 19 19 21 20 20 18 17 16 15 15 14 14 14 14 14 14 13 13 12 12 12 12 13 14 14 14 13 12 11 10 10 10 9 8 8 8 8 9 10 10 9 8 8 8 7 5 4 5 6 6 6 7 10 12 13 14 14 13 12 11
4 3 1 1 1 1 2 2 1 1 2 1 1 10 11 3 2 6 9 11 8 14 13 12 17 6 6 12 10 20 20 18 20 18 19 18 17 17 17 18 19 20 19 18 17 16 15 14 14 14 13 13 13 12 11 11 11 11 11 12 13 13 13 12 12 11 11 10 10 10 9 9 9 9 10 10 10 9 8 8 7 6 5 5 6 7 6 5 6 9 12 13 14 15 15 15 14
4 2 1 1 1 2 3 4 3 1 3 3 3 9 9 3 1 1 5 11 13 18 14 13 19 7 6 12 13 24 23 20 22 20 20 17 16 16 15 16 17 18 18 19 18 16 15 13 13 13 13 12 12 11 11 11 10 10 10 10 11 11 12 12 11 11 11 12 11 11 10 9 10 10 10 9 10 10 9 8 7 6 5 5 6 7 6 5 5 7 11 13 14 15 15 16 16
3 1 1 1 2 2 3 5 3 1 5 6 7 10 6 3 2 5 5 10 16 15 11 13 16 8 8 11 16 27 25 23 23 21 22 18 17 17 16 15 15 16 16 19 19 17 15 13 13 13 13 12 11 11 10 10 10 10 9 9 9 10 11 10 11 11 11 11 12 11 10 10 11 11 9 9 9 11 11 9 8 7 6 6 7 7 6 5 5 7 10 13 13 14 15 15 16
2 1 1 2 3 3 4 4 2 3 7 9 11 11 5 4 4 7 6 8 13 12 9 11 12 9 10 13 21 29 27 26 24 23 23 20 18 17 18 17 16 16 15 19 20 18 16 13 13 12 12 11 11 10 9 9 9 9 9 9 9 9 10 10 10 10 10 11 11 11 10 10 10 10 9 8 9 11 11 9 8 8 7 7 7 7 6 6 6 6 9 13 14 14 15 14 16
1 1 2 3 4 4 6 7 8 10 10 9 10 9 4 5 5 6 7 8 9 10 10 10 12 14 15 20 28 30 28 27 24 24 23 22 20 18 19 18 17 17 17 20 20 19 17 14 13 12 11 10 10 10 9 9 9 9 9 9 9 10 10 10 10 10 10 10 10 11 10 10 10 10 9 9 9 9 10 9 9 9 7 6 7 8 7 6 7 7 8 13 16 15 15 15 15
2 3 3 3 2 4 8 10 12 13 10 7 7 8 3 4 5 8 10 9 6 8 11 10 14 21 22 27 32 30 29 27 25 25 23 22 21 19 18 18 17 18 19 20 21 20 18 15 14 13 11 10 10 10 11 10 10 10 10 10 10 11 10 10 10 10 10 9 10 11 10 10 10 10 10 10 8 8 9 10 10 9 8 7 7 8 8 7 7 7 7 10 15 16 15 15 15
3 4 5 5 3 4 10 11 12 11 8 6 5 7 2 3 5 12 15 9 5 8 14 11 14 23 26 31 34 30 29 27 26 25 23 21 20 19 18 17 17 17 18 20 21 20 19 16 14 13 12 11 12 12 12 11 10 10 10 10 10 10 10 10 10 9 9 9 10 10 10 10 10 10 10 10 9 9 9 10 10 10 9 8 9 9 9 8 7 7 7 8 13 16 16 16 16
4 4 4 8 8 7 12 13 12 10 8 6 4 5 2 2 3 15 16 6 3 6 13 12 12 21 26 31 34 31 29 28 27 24 21 20 18 18 17 16 16 15 17 18 19 19 18 17 15 15 14 13 14 14 13 12 12 11 11 11 11 12 11 10 10 10 9 9 9 9 9 10 10 10 10 10 11 10 11 12 11 10 10 10 10 10 10 9 8 8 8 8 11 15 16 16 16
4 3 3 8 10 10 15 16 15 13 11 11 7 6 5 4 3 11 14 6 3 3 8 11 13 22 26 30 32 29 29 26 24 21 18 17 16 16 15 15 15 15 15 15 16 17 16 16 16 16 15 14 14 14 13 12 12 13 13 13 14 14 13 13 14 11 10 10 9 9 9 10 10 10 11 11 12 13 13 13 11 10 11 11 11 11 11 10 9 9 8 8 11 16 17 17 17
3 4 4 6 8 12 17 18 17 16 16 16 10 6 6 6 5 6 11 9 4 1 5 10 14 23 27 29 29 27 27 25 22 20 18 17 16 15 15 15 15 15 15 14 13 13 12 13 14 13 13 13 13 13 12 11 10 11 12 13 14 13 12 14 16 13 11 11 10 9 9 9 10 10 10 11 13 15 15 13 11 10 10 12 14 13 12 11 10 9 8 8 11 17 18 17 17
5 7 5 6 10 14 16 15 13 12 12 11 5 1 0 4 5 4 7 10 7 3 6 11 16 24 27 26 26 26 27 24 22 21 19 18 16 15 14 15 15 14 14 12 11 10 9 10 10 10 11 11 11 11 10 10 9 9 10 11 11 11 9 11 13 11 12 13 11 10 10 9 9 9 10 12 14 15 13 11 10 9 9 12 15 15 14 13 11 10 9 8 11 17 18 17 16
5 8 9 11 14 14 10 8 8 6 6 5 2 3 3 4 3 2 4 8 8 5 9 13 18 25 27 26 26 26 25 23 22 21 21 19 17 16 15 16 15 14 14 12 10 9 8 8 9 9 9 9 9 9 9 10 10 11 11 11 10 10 9 10 10 10 12 13 12 12 11 11 10 10 11 12 13 13 11 11 11 9 8 11 14 15 15 14 13 12 10 9 12 16 18 17 15
5 7 9 11 9 6 5 4 5 3 2 2 3 4 2 2 1 0 4 8 8 8 12 17 21 26 28 28 27 26 24 23 22 22 22 21 19 17 17 16 15 15 14 12 10 8 8 8 8 8 8 9 8 8 9 9 10 10 11 12 11 11 10 10 10 10 12 13 13 13 12 13 12 11 13 12 13 14 12 11 10 9 9 10 13 15 16 16 15 14 11 9 12 16 17 17 16
6 4 6 7 2 2 5 4 2 3 2 1 4 3 1 2 1 1 4 11 10 10 14 19 23 26 28 29 27 26 24 23 23 23 21 18 17 17 17 16 14 14 13 11 10 8 7 7 7 8 8 8 8 8 8 8 8 8 8 9 9 9 8 9 9 10 11 12 14 15 14 15 14 13 13 12 12 12 12 11 9 8 8 9 11 13 16 17 16 15 12 10 12 16 17 17 16
4 1 2 5 2 2 8 6 3 3 3 2 3 1 1 3 3 2 7 12 13 13 16 20 24 25 27 28 28 26 25 24 24 23 21 18 17 16 16 15 13 12 11 9 8 7 6 6 6 7 7 7 7 7 7 7 6 6 5 5 6 6 6 6 6 7 9 10 13 13 13 14 14 14 13 10 10 9 9 9 8 8 8 8 9 11 14 16 17 16 14 12 14 17 17 17 17
2 1 0 2 1 2 7 6 4 4 4 2 2 1 1 2 5 2 9 13 13 14 16 20 23 24 26 28 28 27 26 26 25 23 21 19 18 16 15 15 13 12 10 7 6 7 6 6 6 6 6 6 7 7 7 6 5 4 4 4 5 5 5 6 6 6 7 8 8 7 7 6 7 12 11 8 7 7 7 6 6 7 8 8 9 9 12 14 15 17 16 14 17 19 19 18 17
2 0 1 1 1 1 4 5 6 5 2 2 0 2 2 2 5 2 9 12 12 12 15 19 22 24 26 28 29 28 28 27 26 24 22 21 19 17 15 14 12 10 9 8 7 7 6 6 5 5 5 6 7 7 6 4 4 4 4 4 5 5 5 6 6 5 5 5 5 4 3 3 2 5 6 6 5 5 6 5 5 6 7 7 8 9 11 13 14 16 16 17 18 21 21 19 19
2 1 1 1 1 2 2 3 6 4 1 4 3 1 1 2 4 1 8 11 10 10 12 18 22 25 27 30 30 30 29 28 28 26 24 22 19 17 15 13 12 10 9 9 9 7 7 6 5 5 6 6 6 6 5 4 4 4 4 5 5 6 6 5 5 5 4 3 3 3 3 3 2 2 3 3 3 3 4 5 6 7 7 8 8 9 11 12 13 15 16 19 20 21 22 21 21
1 1 1 0 1 1 2 1 4 6 3 4 4 1 1 3 4 2 8 10 9 9 11 16 21 25 27 30 31 31 30 30 29 28 25 23 20 19 17 15 14 12 11 11 10 9 8 7 7 6 6 6 6 5 5 4 4 4 5 5 5 5 5 5 5 5 4 3 4 4 4 3 3 3 4 4 3 2 3 4 5 7 7 7 8 10 12 12 12 13 15 18 21 23 23 23 23
1 1 2 0 1 1 2 1 4 7 4 3 1 1 2 5 4 3 9 10 9 9 9 13 17 22 25 28 29 30 30 30 29 28 26 24 21 21 19 17 16 15 13 13 12 11 10 9 8 8 7 6 6 5 5 4 4 4 5 4 4 5 5 5 5 5 5 5 5 6 6 6 6 6 7 7 6 5 5 5 5 7 7 7 7 9 11 13 13 13 13 16 21 24 25 24 24
0 1 2 1 1 1 2 1 3 5 2 2 2 1 3 6 5 2 8 9 8 8 8 11 14 18 23 25 28 29 30 30 29 28 27 25 24 23 22 20 19 17 16 15 14 13 12 11 10 9 7 6 5 5 4 4 4 4 4 3 3 4 4 3 3 3 3 4 4 5 6 7 7 7 7 7 7 6 6 6 6 7 7 7 7 7 9 12 13 12 13 14 17 22 25 25 24
2 2 2 1 1 1 1 0 2 2 1 1 2 1 2 6 5 1 5 7 8 9 9 10 13 16 21 25 28 30 30 30 29 28 28 27 26 25 24 23 22 20 19 18 17 15 13 13 11 9 8 7 5 4 3 2 2 3 2 2 2 2 1 1 1 1 0 1 2 3 5 6 6 7 6 5 4 4 3 3 4 4 4 4 4 4 5 9 11 11 12 12 13 17 21 24 24
2 2 2 1 2 2 0 0 1 2 2 1 1 3 2 4 5 0 4 6 9 11 12 12 14 17 21 26 29 29 29 28 28 29 29 29 28 27 27 26 25 23 21 19 18 17 15 14 12 11 9 7 6 5 3 2 2 1 1 2 3 3 3 3 3 2 1 1 1 2 3 3 4 4 4 3 2 1 1 1 2 3 3 2 2 1 1 4 7 8 9 10 10 12 15 18 21
2 1 2 1 1 2 2 0 1 2 2 0 1 3 3 3 5 2 3 6 8 10 13 15 16 18 22 27 29 29 29 28 28 30 31 31 31 30 29 29 27 25 23 21 20 18 16 15 14 12 10 8 7 6 5 5 4 4 4 4 5 5 4 4 4 4 3 3 3 3 2 1 2 2 2 3 3 3 3 3 4 4 3 3 3 2 2 2 2 3 5 7 8 9 10 12 14
1 1 2 1 0 1 1 1 2 3 2 1 1 3 3 2 3 3 2 5 7 8 11 16 18 20 24 27 30 31 31 31 32 32 33 33 33 33 32 32 30 27 26 24 23 21 18 16 16 13 11 9 8 8 7 7 6 6 7 7 6 6 5 5 6 7 7 6 6 6 5 5 4 4 4 4 4 4 4 5 4 4 4 3 3 3 3 3 2 1 2 3 3 5 6 8 9
1 2 3 2 1 2 2 1 3 1 1 2 1 3 2 1 1 2 0 2 7 7 7 12 18 22 23 23 27 29 31 33 34 34 35 36 36 36 35 34 32 30 28 26 25 23 19 17 16 14 12 11 10 9 9 7 7 8 9 9 8 7 7 7 8 8 8 8 8 8 7 7 7 7 6 5 4 4 4 4 4 3 3 2 2 2 3 4 3 3 2 2 2 2 3 7 8
1 4 7 4 3 3 2 1 1 1 0 3 3 4 1 1 0 3 1 3 3 4 4 6 11 16 19 22 25 28 30 32 34 35 36 38 38 38 37 36 34 32 30 28 26 23 20 18 17 15 14 13 12 11 10 8 8 8 8 9 9 9 8 8 9 8 8 8 8 8 8 8 8 8 8 6 5 4 3 3 2 2 2 1 1 1 2 2 3 3 3 2 3 4 4 6 7
1 2 5 5 3 3 2 1 1 2 2 2 2 3 3 1 1 3 0 3 3 4 4 5 6 8 15 21 25 26 27 29 32 35 37 39 40 40 40 39 36 33 31 29 27 24 21 20 19 16 15 15 13 12 11 9 8 8 7 7 8 9 9 8 8 8 8 8 8 8 8 8 9 9 9 8 7 6 5 4 3 3 2 1 0 1 1 0 1 2 2 3 3 4 5 5 5
1 0 4 6 4 4 3 2 1 1 2 0 1 1 3 4 1 1 1 3 4 2 1 4 5 4 8 15 19 20 23 25 28 32 36 39 41 42 43 41 37 34 32 31 29 26 23 22 20 17 16 16 15 14 13 11 9 9 10 9 9 10 8 7 7 7 7 7 7 7 7 7 8 9 9 9 9 8 8 7 7 6 5 5 4 3 2 2 2 1 0 1 3 4 5 6 6
1 1 4 5 3 3 3 2 1 1 2 3 1 1 3 4 0 0 2 3 3 1 4 5 5 6 7 10 12 15 18 22 26 30 34 37 41 43 43 42 38 35 33 33 31 28 25 23 21 19 18 18 17 15 14 13 11 11 12 12 11 11 10 8 7 6 6 6 6 6 6 7 7 8 8 8 8 8 8 8 8 7 6 6 6 5 4 4 3 3 3 2 1 2 3 4 5
2 4 5 6 5 5 3 1 2 2 2 5 1 1 3 3 1 1 1 0 2 3 4 4 5 8 10 11 12 14 16 19 23 28 32 35 38 40 41 41 39 37 35 34 32 29 27 24 23 21 20 20 19 17 16 15 14 14 15 14 13 12 12 10 9 8 7 6 6 6 6 6 6 7 7 7 7 7 6 6 6 5 5 5 4 4 4 4 4 4 4 5 4 4 4 4 4
4 4 4 5 4 3 2 2 1 1 3 4 1 1 3 3 1 0 1 1 2 5 5 5 6 9 12 13 13 14 15 16 18 22 27 30 32 33 37 38 38 38 38 36 34 32 28 26 25 23 21 21 21 19 18 17 17 17 17 16 15 14 13 12 11 10 8 7 7 6 6 5 5 5 6 6 6 5 5 5 5 4 4 4 4 3 3 3 4 4 5 6 7 7 6 5 5
3 2 2 2 1 1 1 1 1 3 4 1 3 1 3 4 1 2 1 2 3 4 5 6 8 10 14 15 14 14 14 14 14 16 18 22 26 29 32 35 36 38 39 38 36 34 31 29 27 25 23 23 23 21 20 19 18 18 18 17 17 15 14 13 12 10 9 8 7 7 7 6 5 5 5 5 5 5 4 4 3 3 3 4 4 4 3 4 4 5 6 7 7 7 7 7 6
2 2 2 2 2 0 1 1 1 4 3 1 2 1 2 5 2 2 1 1 2 3 4 5 7 10 14 15 15 14 14 12 11 10 10 15 21 26 28 31 33 36 38 39 38 35 33 31 29 28 25 24 24 24 22 20 20 19 19 19 18 17 16 14 13 11 9 8 8 8 7 7 6 5 5 5 4 4 4 3 3 2 1 2 3 3 4 4 5 6 7 7 7 8 7 7 6
4 4 3 3 2 1 2 2 1 4 2 2 1 1 2 3 1 2 1 2 3 3 3 4 6 9 11 13 15 15 13 11 9 7 4 8 15 20 24 27 30 33 36 38 38 35 34 32 31 30 27 25 25 25 24 22 21 20 19 19 19 18 17 16 14 12 11 10 10 9 8 8 7 6 6 6 5 4 4 4 3 2 1 0 1 2 3 4 5 5 7 7 8 8 8 8 8
2 1 1 3 3 2 3 3 3 4 0 2 0 2 2 1 1 2 2 3 3 4 5 6 6 7 9 12 17 18 16 12 9 6 3 3 8 13 18 21 24 27 31 35 36 34 33 32 32 31 29 27 26 26 26 24 22 20 20 20 19 19 18 17 15 14 13 12 11 10 9 9 9 8 8 8 7 6 6 5 5 4 3 2 2 3 3 4 4 5 6 7 8 8 8 9 9
1 0 1 2 2 3 1 1 1 2 1 1 2 2 1 1 1 2 1 2 4 5 6 7 8 9 11 15 20 22 21 17 12 8 4 2 2 7 11 15 18 21 25 29 31 31 31 31 32 31 30 28 28 27 27 26 24 22 21 20 20 19 19 18 17 16 15 14 13 12 11 10 10 10 10 10 9 8 8 7 7 6 5 4 4 4 5 5 5 5 6 6 7 8 8 8 9
2 2 3 1 1 3 2 0 2 1 3 2 1 2 2 1 1 2 3 3 3 5 6 7 8 10 13 17 21 24 24 21 17 12 7 4 1 2 5 9 12 15 19 23 25 26 27 29 30 31 31 30 29 29 29 28 27 25 23 22 20 20 20 19 18 17 16 16 15 14 13 12 12 11 12 12 11 10 10 9 9 8 7 6 6 6 6 7 7 7 7 7 8 9 9 9 9
2 2 2 3 1 2 2 1 1 1 4 2 1 2 3 3 2 3 4 3 2 3 4 5 7 9 12 16 21 24 24 23 21 18 14 9 4 2 0 3 7 10 13 16 18 20 22 23 26 29 31 32 31 31 30 30 29 28 26 24 23 21 21 20 19 19 18 18 18 17 16 15 15 14 14 13 13 12 12 11 10 10 9 8 8 7 8 8 8 8 8 9 9 10 10 10 10
1 1 2 2 2 2 1 2 1 2 3 1 1 1 2 4 4 6 8 6 4 2 2 3 5 8 9 13 20 22 23 24 23 21 19 15 11 8 6 3 1 3 6 8 10 13 16 18 22 26 29 31 33 32 32 31 31 30 28 27 25 24 23 22 22 21 21 21 20 19 18 18 17 17 17 16 15 15 14 12 12 11 11 11 10 9 9 10 10 10 10 10 11 11 12 12 12
2 1 2 1 2 2 1 1 1 3 3 1 1 2 3 4 3 7 11 8 5 4 2 2 3 5 6 11 18 20 21 23 23 22 21 19 15 12 10 8 6 3 0 1 2 5 9 12 15 19 23 28 31 32 32 32 32 32 31 30 29 27 26 25 25 25 25 24 23 21 21 20 19 19 19 18 18 17 15 14 13 13 13 13 12 11 11 11 11 11 12 12 13 13 13 14 14
1 1 2 1 1 1 1 1 0 1 2 2 2 3 2 1 1 6 11 9 6 4 3 2 2 4 6 10 15 18 19 20 21 22 21 20 18 16 13 11 9 5 2 1 2 2 3 5 7 9 13 18 23 28 31 32 32 33 33 33 32 31 29 29 28 27 27 27 25 24 23 22 21 21 21 20 20 18 17 15 14 14 14 15 14 13 13 13 12 13 13 14 14 14 14 15 16
1 1 2 1 1 1 3 3 1 0 2 2 2 3 2 2 0 3 7 7 5 4 2 2 2 3 6 9 13 16 17 17 18 20 20 20 20 19 17 15 12 9 5 3 3 3 3 3 4 5 7 9 14 19 23 26 29 32 34 34 34 34 33 32 31 30 30 28 27 26 25 24 23 23 22 21 20 19 18 17 16 16 16 16 16 15 15 14 14 15 15 15 15 15 15 16 16
Wind_Direction
204 192 172 162 155 156 150 150 169 77 270 252 257 309 205 220 299 281 246 196 234 150 186 167 144 149 143 152 154 110 83 160 158 150 165 95 158 164 168 166 167 169 166 162 163 166 167 169 165 165 168 163 161 161 158 155 149 144 142 140 137 134 129 124 123 124 127 132 136 143 149 152 151 147 145 144 144 144 142 141 140 137 137 139 142 147 155 166 181 197 199 190 179 173 169 167 161
188 177 160 153 149 158 159 146 236 84 225 247 207 212 12 237 261 258 254 320 240 117 118 125 134 141 125 128 131 111 100 141 163 119 92 138 153 156 161 164 168 168 167 163 163 167 167 167 167 170 170 164 162 161 159 155 150 145 142 138 136 133 129 125 123 123 125 130 133 140 147 152 154 153 154 154 153 149 147 145 139 133 131 130 128 131 140 154 177 192 197 187 173 169 169 170 165
174 163 152 149 141 146 145 123 246 153 216 243 201 190 317 279 269 282 280 294 126 121 115 118 119 116 119 130 135 136 123 145 166 135 125 144 149 151 157 163 168 167 168 164 161 166 166 167 171 173 170 165 164 163 161 157 151 147 143 139 136 133 128 125 124 125 127 132 136 142 148 153 157 159 160 157 152 146 145 143 138 132 130 130 126 126 133 142 163 184 191 181 164 162 167 168 164
160 154 151 148 137 126 132 109 199 175 216 228 217 190 291 288 301 317 274 207 134 127 123 124 111 108 143 140 128 110 118 154 164 145 143 151 152 152 156 162 165 166 167 166 165 166 169 174 175 174 171 166 166 165 163 159 155 149 145 141 137 134 128 126 126 129 134 139 143 147 153 156 158 162 162 156 149 143 139 134 130 129 130 132 127 128 133 137 147 169 185 176 162 161 164 166 163
152 148 152 156 158 135 128 96 111 207 219 187 117 48 314 305 345 24 118 166 115 352 209 147 99 117 123 101 98 107 120 148 155 150 148 153 155 154 157 161 164 165 166 168 170 166 170 176 174 174 171 168 168 168 167 162 159 153 148 144 140 137 132 129 129 132 138 145 152 156 160 161 162 165 161 155 150 144 137 130 127 127 132 133 129 132 132 132 141 153 176 176 166 161 162 162 161
146 138 140 151 148 130 150 171 168 212 203 200 212 87 333 342 53 69 93 151 35 16 81 151 121 131 102 73 75 104 124 145 152 151 150 155 158 158 159 162 164 164 165 167 169 166 168 173 174 175 172 171 170 169 170 166 163 158 153 150 145 142 138 135 134 135 139 146 155 162 167 168 167 166 160 157 156 153 147 144 138 131 131 132 129 133 131 132 144 151 165 179 174 165 162 162 160
148 138 135 141 106 95 200 221 196 206 162 212 270 242 309 343 55 341 15 122 90 25 78 88 111 126 93 91 91 87 133 150 153 153 154 159 160 162 163 163 164 163 165 165 165 166 166 170 174 175 171 173 173 170 173 171 167 164 160 156 153 149 146 143 141 141 142 146 152 160 167 171 170 167 165 165 165 163 157 152 147 137 133 129 125 129 130 137 150 155 161 177 182 173 166 163 161
155 150 145 157 96 32 205 186 200 232 176 227 271 255 267 302 321 328 333 156 154 29 90 67 70 120 93 117 100 82 133 146 156 154 154 161 163 165 165 164 164 164 164 162 161 164 166 169 172 174 172 174 176 174 175 176 174 171 167 163 160 158 156 154 151 149 148 150 152 156 163 169 172 172 172 174 174 167 160 155 149 143 138 132 129 131 132 145 158 157 157 164 184 184 174 165 163
156 153 142 165 169 150 176 180 208 238 263 248 255 249 255 277 288 290 280 270 140 145 149 38 18 143 124 104 101 109 126 143 155 153 154 162 165 165 165 165 167 166 162 160 160 161 165 167 170 173 175 176 179 179 178 181 180 178 175 171 169 166 166 165 161 159 156 156 155 157 163 168 171 175 177 179 177 167 162 159 153 148 143 142 142 140 141 156 169 163 155 156 177 189 182 172 169
152 129 136 128 166 215 216 209 173 192 259 259 261 260 258 260 270 267 263 277 177 162 168 127 33 110 120 103 106 118 125 142 152 152 156 160 162 163 164 167 171 170 164 160 159 158 162 163 166 172 175 178 182 183 182 183 184 184 182 180 178 176 175 173 171 169 167 165 162 165 172 176 176 177 179 181 180 174 171 167 160 158 157 157 155 151 155 164 175 173 163 161 173 186 185 179 177
151 85 134 158 189 232 224 215 236 227 258 284 281 267 267 249 252 266 260 263 212 177 173 173 86 109 107 94 106 121 131 145 155 153 157 160 162 164 166 169 173 175 169 163 158 158 161 161 164 169 174 179 183 184 184 186 187 188 188 187 186 184 183 180 179 176 175 176 176 179 184 187 189 189 191 192 192 189 184 174 167 166 165 164 168 167 170 176 181 187 184 175 179 186 188 187 186
187 67 133 202 213 237 184 243 243 269 266 281 282 269 336 209 211 244 242 235 208 188 187 187 147 131 103 89 115 130 142 147 157 159 161 163 163 166 170 172 176 178 173 167 162 161 161 161 162 166 174 180 185 185 185 188 189 192 193 193 193 192 191 189 187 184 182 186 189 191 197 199 198 197 201 208 208 201 193 185 176 171 166 165 176 188 183 185 192 200 206 199 191 194 200 200 200
204 137 169 189 270 150 147 270 259 293 271 244 252 106 60 178 220 237 232 233 207 192 198 190 164 145 96 96 133 147 154 152 159 163 162 163 164 168 173 175 179 178 177 173 167 164 162 162 162 165 175 180 184 185 187 189 189 194 197 196 198 198 198 197 195 194 193 194 197 200 207 211 208 203 203 213 216 208 201 198 188 177 173 168 174 190 195 192 199 210 217 218 210 203 205 208 210
177 154 195 167 80 153 155 265 219 261 249 241 249 345 345 273 252 249 227 222 208 200 196 183 170 153 130 135 153 168 164 160 164 165 161 162 165 167 173 176 180 181 181 179 173 169 164 166 166 164 174 181 184 185 188 188 186 191 195 196 199 202 202 203 202 202 202 202 205 209 214 216 215 215 215 215 214 208 204 203 194 186 183 174 173 184 201 206 208 216 221 222 221 215 210 210 215
151 140 94 135 129 188 193 250 195 224 238 171 256 333 333 293 259 253 221 213 205 187 173 167 171 165 177 172 174 176 166 164 166 164 162 160 165 169 173 176 181 184 185 183 178 175 171 173 172 167 172 181 186 186 184 183 182 184 188 192 197 202 203 205 207 207 209 210 211 213 216 216 214 220 222 213 207 203 200 202 195 191 193 184 182 182 195 216 216 219 222 223 224 223 217 213 216
127 117 77 140 155 209 195 200 163 219 251 183 273 340 337 321 254 254 223 210 174 163 164 163 174 173 185 178 172 169 164 168 167 164 164 159 163 166 173 180 183 186 187 186 183 180 177 177 178 173 173 179 186 185 181 180 183 184 184 188 195 201 203 205 208 211 214 215 215 217 223 221 220 223 222 215 211 206 196 197 198 200 204 194 188 185 188 211 222 220 221 223 224 226 225 219 218
121 111 112 149 180 220 194 193 189 215 307 288 316 345 328 317 24 222 205 192 161 159 169 169 178 176 165 177 173 166 164 171 168 165 167 162 160 161 171 180 184 186 188 188 186 184 180 178 181 178 176 176 182 184 183 184 187 189 188 190 194 200 204 206 210 214 217 219 220 223 231 233 232 230 224 220 223 219 205 197 204 213 214 201 189 187 186 201 226 226 222 223 224 226 227 225 222
131 111 191 198 192 216 194 197 195 259 320 309 312 334 304 266 105 129 128 156 152 154 167 164 178 186 171 180 174 167 165 169 168 167 168 164 162 163 168 175 182 185 187 188 187 187 183 179 180 179 177 175 178 181 181 185 189 192 195 196 197 201 206 211 215 220 223 226 228 229 235 237 236 233 229 224 224 223 214 202 206 216 215 204 190 190 191 193 219 234 227 226 225 224 224 226 226
133 106 203 213 201 219 211 206 211 255 300 309 306 325 302 214 132 147 142 143 150 148 155 159 168 169 173 179 171 168 166 168 169 168 169 167 168 168 168 174 180 180 184 189 188 187 186 183 182 181 179 179 180 180 178 183 193 197 198 201 202 206 210 213 218 225 229 232 234 236 237 235 233 232 231 224 219 218 213 202 208 218 211 205 195 195 197 190 207 230 231 228 229 228 223 223 225
139 144 224 232 216 244 245 237 244 260 283 297 300 323 309 202 158 168 157 148 169 169 163 161 159 158 165 170 168 169 167 169 170 169 173 174 175 176 176 179 181 183 187 188 187 188 187 187 187 184 182 184 185 187 190 190 195 201 201 203 206 211 214 213 216 224 229 233 236 239 238 235 233 234 236 229 222 217 211 208 218 225 216 213 209 203 206 198 199 217 230 230 231 234 227 220 222
151 186 238 233 182 253 258 253 260 273 276 271 292 319 306 197 177 170 156 155 195 206 185 170 169 169 165 166 169 170 168 169 171 173 177 178 179 181 184 185 185 187 186 184 186 188 189 190 191 190 188 189 195 203 206 203 202 206 208 208 212 216 216 215 218 223 228 234 237 240 239 236 233 235 240 239 234 226 218 219 225 230 224 223 221 211 214 212 203 211 225 228 227 233 231 221 218
159 218 248 239 197 252 270 273 276 280 272 261 292 317 295 188 188 169 169 179 191 206 196 188 185 178 170 168 170 169 169 171 173 175 177 179 181 182 184 185 184 183 180 180 184 187 190 193 195 196 198 201 207 215 215 212 211 213 217 218 223 224 222 221 224 229 234 238 240 243 245 241 236 236 240 240 237 230 225 226 230 232 227 224 224 219 222 219 210 213 225 228 223 228 232 223 217
213 243 254 251 235 245 274 278 280 278 267 267 281 305 262 192 212 179 182 199 162 192 202 206 202 182 172 170 170 169 171 175 174 174 175 178 180 180 180 179 177 174 173 177 182 188 192 197 201 204 208 213 218 225 226 225 223 225 227 227 231 229 229 232 232 232 235 240 242 245 249 247 242 242 246 242 238 235 231 231 232 233 232 231 230 229 230 226 220 219 227 231 221 222 228 223 218
233 265 261 266 248 244 269 272 276 275 267 275 270 277 265 220 223 189 189 189 158 203 212 222 206 180 172 170 169 170 173 175 172 170 172 174 175 175 174 171 169 167 171 177 181 189 195 200 206 211 216 221 226 234 239 238 233 235 239 240 241 241 239 242 242 233 230 237 241 245 247 246 245 246 250 246 240 238 235 234 234 231 234 238 235 235 233 229 230 229 232 232 219 217 219 219 217
217 252 252 266 256 257 275 277 277 278 274 279 265 261 271 228 211 194 196 199 209 260 204 210 193 178 174 170 171 173 174 173 169 168 171 171 171 173 172 170 168 167 170 174 178 185 194 200 207 214 220 224 227 234 242 245 242 243 248 249 251 254 250 245 244 234 230 236 238 242 244 243 245 247 249 245 239 238 237 237 240 238 239 243 238 235 235 233 234 236 241 237 222 217 214 214 215
198 230 253 255 267 276 284 282 281 286 280 274 248 225 360 192 193 191 205 212 224 225 185 189 183 178 175 172 175 177 176 173 170 169 172 173 173 176 179 177 171 169 168 167 169 174 184 195 203 210 214 220 225 228 236 243 248 250 254 258 258 260 256 247 243 236 239 240 234 237 241 240 239 238 236 235 238 240 243 246 250 249 243 244 241 236 236 234 235 240 248 244 226 218 213 212 214
216 241 263 262 274 287 291 286 286 297 284 258 196 75 90 147 176 191 201 208 214 197 176 177 180 181 179 178 180 181 178 175 173 172 175 176 177 183 189 186 177 173 169 165 165 169 181 192 200 207 212 220 226 230 235 240 245 248 252 258 260 262 262 258 251 247 250 247 242 240 237 237 234 229 227 230 239 243 248 252 252 247 237 241 243 240 236 232 231 234 242 244 223 213 211 209 211
271 273 273 270 276 295 315 304 294 316 313 247 147 96 92 165 165 270 189 187 194 187 176 176 180 184 184 184 185 184 182 179 179 179 181 179 180 187 192 190 183 176 171 169 171 175 186 197 204 213 219 226 233 237 241 243 245 246 248 252 258 263 264 263 258 256 257 255 254 249 239 238 235 229 227 227 235 241 246 249 248 243 238 240 240 237 233 231 230 226 231 237 217 208 207 205 205
274 295 288 296 318 39 8 360 343 38 45 105 141 126 103 214 246 339 178 175 181 182 177 177 181 185 186 187 187 186 185 185 187 188 187 186 185 188 190 191 186 178 174 175 182 187 194 206 213 220 226 232 238 241 244 248 248 245 244 246 253 261 264 265 262 259 260 257 255 247 238 239 238 236 235 229 229 240 248 247 247 246 240 239 239 233 228 230 231 226 226 227 212 205 204 203 204
265 335 309 315 333 41 19 9 350 43 54 83 148 194 275 232 298 303 176 173 176 174 174 178 181 185 186 187 189 190 190 192 195 193 191 193 195 192 190 190 186 182 182 182 190 198 206 216 221 227 234 238 243 249 255 256 252 246 239 238 245 253 262 270 272 267 263 262 262 255 248 247 241 236 239 241 235 238 247 248 250 249 240 233 233 230 226 230 232 230 230 222 208 204 203 205 208
300 308 90 341 326 13 16 3 351 53 63 55 172 288 310 262 335 344 179 179 179 170 170 179 183 186 187 188 192 194 196 199 200 198 197 200 201 198 192 189 187 187 192 197 203 209 219 228 230 236 245 252 257 261 263 259 249 241 238 238 243 252 262 272 280 275 268 271 280 285 283 280 249 232 234 246 241 230 236 245 248 249 246 233 223 220 224 230 233 233 229 218 207 203 204 208 211
352 293 143 347 32 346 3 23 28 50 57 15 214 270 304 294 356 17 183 184 187 175 171 180 185 188 189 191 195 199 201 204 204 203 203 204 204 203 197 192 194 195 199 208 217 221 224 226 229 242 254 265 271 270 264 250 235 231 235 240 243 252 260 268 277 277 275 281 292 304 323 4 349 247 244 253 253 246 243 245 251 253 254 247 230 222 225 229 235 237 227 215 208 206 209 210 212
360 16 103 329 27 16 3 65 47 25 331 24 15 282 295 326 354 322 189 190 197 188 179 184 188 191 192 195 199 202 205 207 207 206 206 205 206 208 204 200 203 204 206 213 224 230 226 223 228 240 251 263 269 269 260 239 231 234 240 248 249 252 253 259 270 277 284 294 300 315 339 3 11 335 291 276 270 260 250 250 255 256 257 256 244 233 231 229 232 236 229 220 214 212 215 214 215
51 28 93 320 335 357 348 35 31 10 18 45 18 298 276 295 319 246 197 197 204 200 192 189 192 194 196 198 201 205 207 210 210 208 206 205 207 211 210 209 210 211 214 217 225 232 230 228 230 236 247 257 258 256 249 241 240 243 252 258 257 253 251 253 259 270 282 290 294 303 315 312 302 299 291 287 285 257 254 257 249 249 253 251 246 243 240 231 225 227 230 227 221 219 220 218 219
165 131 115 113 235 261 318 317 13 8 27 74 24 323 315 281 280 229 201 199 207 212 206 199 198 199 200 202 205 208 210 212 211 209 208 207 210 213 214 215 215 215 219 221 225 228 230 230 229 233 241 247 250 246 241 243 245 250 256 260 258 250 249 253 256 265 272 277 284 286 289 288 284 279 272 268 268 262 259 256 245 242 245 246 250 253 244 229 222 224 229 229 226 224 223 220 222
180 139 133 142 169 242 279 279 8 358 8 88 66 3 322 283 283 224 197 196 203 214 214 210 206 205 206 208 210 212 213 214 213 211 210 209 213 216 217 219 218 217 221 224 227 228 228 227 224 224 229 233 239 241 244 254 259 258 251 242 249 251 251 257 258 266 274 279 286 287 288 287 286 285 280 273 271 269 261 250 242 240 246 250 254 261 246 227 222 227 234 233 228 227 226 224 225
110 135 159 171 207 246 254 247 8 343 286 70 61 313 289 281 290 238 185 191 201 212 213 212 210 209 211 213 215 216 217 217 214 213 213 212 214 217 219 220 219 219 222 225 228 229 229 226 223 220 220 220 221 229 247 268 272 269 260 230 220 228 227 180 119 101 360 327 316 304 301 297 297 300 300 298 291 286 272 241 226 224 237 247 249 263 247 224 222 231 238 235 227 226 228 227 228
121 160 177 191 222 249 344 11 351 349 314 41 55 291 277 271 286 124 164 198 211 212 211 212 210 210 214 217 220 220 221 221 217 216 216 213 214 216 219 221 220 221 224 227 228 229 229 226 223 220 216 212 207 209 208 198 201 204 188 153 150 147 133 120 105 92 80 47 18 333 315 308 306 313 324 345 354 345 16 113 157 171 190 202 204 209 171 197 218 234 237 231 225 223 225 226 229
131 157 193 202 216 277 296 243 356 358 322 279 11 307 286 263 284 290 194 217 227 221 222 225 215 210 216 219 222 223 224 224 219 218 217 214 214 217 221 222 221 222 225 228 230 230 228 225 223 218 211 206 200 198 188 181 187 171 147 139 139 136 125 115 108 104 104 102 94 87 65 25 360 2 22 42 55 61 70 90 121 136 145 140 130 143 136 143 191 223 227 223 223 224 226 229 233
159 168 206 225 112 284 254 145 358 7 6 343 311 297 284 265 280 273 242 243 251 250 244 240 230 222 221 222 225 225 226 226 223 220 218 216 215 218 222 222 221 222 224 226 229 228 226 224 224 216 203 199 196 196 190 183 187 176 158 152 149 138 128 120 116 116 114 110 100 92 87 80 76 71 66 69 72 75 81 92 110 127 138 135 123 133 135 134 157 168 182 190 204 219 224 224 224
213 202 215 225 183 220 246 324 324 319 87 47 313 273 266 35 215 196 11 289 255 261 261 243 233 231 229 229 231 231 231 232 230 226 222 219 218 219 221 221 220 221 223 225 227 228 225 223 225 218 203 197 193 194 195 192 192 183 170 166 162 149 138 131 123 120 116 110 102 94 89 86 85 85 83 83 84 87 91 96 106 118 133 135 121 126 133 140 148 150 159 150 135 160 201 207 202
225 218 216 211 183 189 208 322 317 249 146 49 353 288 241 43 154 172 6 323 262 272 282 251 235 231 231 233 237 239 240 240 238 236 231 225 222 220 220 219 219 220 223 225 226 227 225 224 226 220 206 197 192 194 198 198 199 192 179 173 167 154 144 139 130 125 121 112 106 98 91 88 88 89 89 90 92 95 99 104 112 124 138 140 100 93 115 139 155 163 173 163 145 151 177 203 202
208 219 194 175 154 151 153 176 248 293 312 45 360 293 267 310 111 137 360 304 270 274 280 285 280 244 233 238 243 245 246 245 244 242 238 233 227 221 219 217 217 219 222 224 225 225 222 222 224 220 210 200 193 193 197 198 201 193 176 169 164 154 152 149 140 132 125 117 110 103 97 93 91 92 93 93 92 91 95 96 96 106 121 120 26 17 54 124 172 188 200 199 195 187 186 206 215
166 129 149 152 154 156 154 169 209 295 310 293 52 332 274 276 249 118 297 279 260 258 342 343 329 291 249 246 247 249 250 250 248 245 242 238 233 226 222 219 216 218 222 224 223 222 220 218 221 220 212 204 196 194 197 196 198 186 168 163 162 163 168 166 157 147 135 126 116 108 104 100 96 97 97 97 95 91 91 91 88 88 89 85 77 70 70 66 64 67 136 213 223 224 216 224 231
16 105 121 128 126 123 132 146 155 56 292 252 140 95 262 266 252 180 245 261 269 348 18 1 341 321 295 272 262 259 258 256 254 252 248 244 238 232 226 221 218 218 222 225 223 222 220 217 218 218 213 208 200 196 197 195 194 186 176 170 166 172 183 187 183 174 159 144 131 120 114 110 106 105 104 103 101 97 95 93 90 89 89 87 84 77 70 57 43 30 17 2 327 288 263 253 248
120 135 101 84 77 70 78 113 135 99 270 257 205 104 264 270 274 256 231 270 319 332 336 324 313 314 312 303 289 280 272 263 256 255 253 249 242 236 230 224 220 220 224 226 224 222 220 217 217 217 214 211 205 199 198 195 194 191 188 183 177 181 193 198 197 196 189 171 154 142 133 127 122 117 116 114 111 108 105 102 99 99 99 95 88 76 63 49 34 25 20 17 10 354 331 307 288
149 149 97 84 72 60 68 48 74 162 243 257 11 55 252 269 290 296 356 8 300 298 308 315 321 327 328 322 309 298 290 279 268 261 254 249 244 238 233 227 222 221 225 227 225 223 221 219 219 217 215 214 209 204 200 197 197 197 196 193 188 190 199 205 205 205 206 197 179 166 157 152 145 137 136 133 128 125 120 115 112 111 109 106 99 87 71 60 51 40 33 28 22 15 5 352 332
151 154 112 124 77 72 118 69 114 233 248 302 30 33 219 240 245 88 40 304 275 272 291 317 329 334 334 333 330 317 307 300 292 279 259 245 239 235 230 227 224 222 225 227 226 224 222 222 222 219 216 216 214 210 205 201 200 201 201 201 198 198 204 212 215 215 216 213 202 189 179 176 172 167 163 158 154 148 144 139 133 125 115 108 100 92 79 65 53 45 40 32 24 16 10 4 354
178 159 146 209 247 129 233 245 195 241 259 47 31 14 214 240 265 49 41 323 316 283 287 311 325 329 331 341 350 340 324 319 315 300 265 235 230 230 228 226 224 222 224 227 227 225 223 223 224 222 219 218 218 215 211 207 205 204 206 207 206 205 208 215 221 225 226 223 219 212 200 195 195 196 195 193 187 176 174 173 169 168 140 105 86 74 63 51 39 32 32 27 19 13 6 359 353
195 179 169 221 224 163 233 222 240 262 270 47 21 274 249 243 270 33 3 355 352 327 326 333 334 333 336 354 11 9 351 339 340 339 290 230 226 229 229 227 226 224 224 227 228 225 223 224 226 225 223 220 221 220 217 214 211 210 211 212 213 213 213 216 220 226 230 228 227 225 217 209 206 211 217 218 216 208 208 211 212 223 229 333 37 40 35 34 29 22 20 15 8 4 360 355 350
190 170 160 211 201 212 248 225 240 262 270 68 127 215 230 227 59 4 326 357 12 4 5 5 3 7 13 22 31 33 23 9 4 11 9 243 230 230 231 232 231 229 228 228 229 227 225 226 228 227 225 223 225 226 224 222 220 216 216 216 218 220 221 222 223 226 233 234 233 232 228 220 213 218 228 233 232 229 232 236 241 252 263 289 324 350 360 5 8 7 7 3 358 356 354 349 345
117 56 175 213 201 187 248 302 278 288 243 158 196 228 263 308 11 8 18 53 41 19 13 13 12 24 35 37 41 44 41 34 28 27 36 38 246 234 234 236 237 237 235 234 233 231 228 228 229 229 228 227 228 230 230 229 226 224 223 222 223 225 227 229 229 229 233 237 238 236 236 233 226 226 232 238 240 239 241 245 249 257 267 282 301 319 333 339 342 345 347 345 344 345 345 343 341
136 178 190 148 94 128 128 90 49 21 250 214 170 226 219 177 184 106 101 85 53 23 15 12 8 25 38 40 45 49 49 48 45 44 48 48 17 246 242 244 245 245 244 241 240 238 235 233 233 232 231 231 230 232 233 233 231 229 229 229 229 229 232 235 236 237 237 240 241 240 238 238 235 234 237 241 244 245 247 249 253 260 266 276 290 305 316 320 324 326 328 330 331 332 334 335 336
157 198 158 124 115 95 118 218 71 126 243 225 161 228 205 190 189 143 147 143 93 37 15 11 14 29 36 41 51 54 55 57 57 57 57 57 64 77 214 251 255 255 255 253 250 247 244 241 239 237 235 234 233 233 235 236 235 234 235 235 236 236 237 239 241 244 244 243 243 242 240 239 238 239 243 245 246 247 248 251 255 261 267 274 283 297 306 309 313 315 315 316 318 323 327 329 331
21 187 109 123 229 217 157 200 186 212 240 234 183 231 228 222 195 160 172 170 143 116 28 32 38 35 31 44 57 60 60 60 61 61 61 62 69 79 87 97 236 266 267 267 265 261 255 248 244 241 239 237 236 237 238 239 239 240 240 241 242 243 243 243 244 245 247 246 246 244 243 242 241 241 244 246 249 250 251 254 257 262 266 272 278 288 298 304 308 309 308 308 310 317 322 324 326
58 117 114 35 279 254 208 190 216 228 230 222 208 214 217 222 190 166 171 166 157 157 123 87 57 40 38 52 62 64 63 61 62 63 64 64 67 74 85 92 95 93 136 257 264 267 263 256 250 248 246 244 242 242 243 244 244 244 245 245 246 248 249 250 250 249 250 250 250 248 246 244 243 244 245 247 250 253 255 257 260 263 266 270 276 283 290 299 304 301 299 300 303 309 314 318 320
154 198 188 144 96 284 245 176 90 250 219 188 207 233 211 164 174 172 164 161 170 165 137 119 83 54 59 65 69 71 70 68 68 68 69 68 68 70 74 79 86 89 83 146 146 163 239 257 253 252 255 254 251 249 248 249 250 250 249 249 250 251 252 254 255 255 255 254 254 253 251 249 247 245 246 247 250 254 257 259 261 263 266 269 274 279 286 294 297 293 290 291 294 301 306 311 314
300 248 228 196 168 214 236 222 165 360 244 191 192 245 228 105 140 182 152 152 171 172 160 141 88 66 73 76 77 79 78 76 75 75 75 75 74 74 74 76 82 87 87 92 118 147 190 213 224 240 256 261 260 258 256 256 256 256 255 254 253 253 254 255 257 258 257 257 256 256 254 253 250 248 247 248 250 253 256 260 262 263 266 269 272 276 283 290 291 288 286 286 288 294 300 305 309